sat.trackr.live / text

‹ back to catalog

STARLINK-37063

NORAD 68079 · 2026-042L

PAYLOAD ACTIVE UNKNOWN

§ Identity

Operator
Country
US
Launch date
2026-03-04
Launch site
AFETR
Launch vehicle
Mass (kg)
RCS (m²)

Purposes: comms

External: N2YO · Heavens-Above · Gunter

§ Orbital elements

Epoch: 2026-05-24T12:33:57.549600Z

Period
93.85 min
Inclination
53.1588°
Eccentricity
0.0001167
Mean motion
15.34390799 rev/d
Perigee alt
461.9 km
Apogee alt
463.5 km
Semi-major
6,840.9 km
B*
7.0814e-4
RAAN
185.9143°
Arg perigee
83.8807°
Mean anomaly
276.2329°
Rev number
1,392

§ Raw data

STARLINK-370631 68079U 26042L   26144.52358275  .00023618  00000+0  70814-3 0  99902 68079  53.1588 185.9143 0001167  83.8807 276.2329 15.34390799 13928

JSON: /api/v1/satellites/68079 · /tle

For live sub-satellite position, see the globe view (requires WebGL).

§ Visibility from observer

Set your observer location to see the next 7 days of passes ≥ 10°. The values pass through the URL so the page stays shareable.

No JS? Fill the form by hand. The geolocation button needs JavaScript.